Weather Roundup
Issued by NWS

Home | Current Version | Previous Version | Text Only | Print | Product List | Glossary On
Versions: 1 2 3 4 5 6 7 8 9 10 11 12 13 14 15 16 17 18 19 20 21 22 23 24 25 26 27 28 29 30 31 32 33 34 35 36 37 38 39 40 41 42 43 44 45 46 47 48 49 50
000
NZUS93 KARX 160010
HRRWXR

CURRENT HOURLY OBSERVATIONS ACROSS
MUCH OF THE UPPER MISSISSIPPI VALLEY
NATIONAL WEATHER SERVICE LA CROSSE WI
700 PM CDT TUE AUG 15 2017


...SOUTHEAST MINNESOTA...


CITY           SKY/WX    TMP DP  RH WIND       PRES   REMARKS
ROCHESTER      CLOUDY    67  61  81 SE7       29.96F
ROCHESTER/MAYO FAIR      69  60  73 SE8       29.96F
WINONA         PTSUNNY   72  61  68 CALM      29.95F
AUSTIN         CLOUDY    64  61  88 E5        29.95F
ALBERT LEA     CLOUDY    70  64  83 E8        29.95S
DODGE CENTER   CLOUDY    66  59  77 SE7       29.97S
PRESTON        CLOUDY    67  60  78 E3        29.97F
OWATONNA       PTSUNNY   70  61  73 SE9       29.95F
FARIBAULT      CLOUDY    70  61  73 E8        29.95F
$$

...ELSEWHERE IN MINNESOTA...


CITY           SKY/WX    TMP DP  RH WIND       PRES   REMARKS
MINNEAPOLIS    CLOUDY    73  59  61 SE9       29.94F
INTNL FALLS    SUNNY     74  57  55 SE8       29.94S
DULUTH         MOSUNNY   67  59  75 E8        30.00S
RED WING       CLOUDY    73  59  60 E3        29.94F
REDWOOD FALLS  PTSUNNY   69  62  78 SE7       29.90F
MANKATO        CLOUDY    69  63  81 SE8       29.93F
WORTHINGTON    CLOUDY    66  63  90 E10       29.89F
FAIRMONT       CLOUDY    67  63  87 SE8       29.92F
$$

...SOUTHWEST WISCONSIN...


CITY           SKY/WX    TMP DP  RH WIND       PRES   REMARKS
LA CROSSE      CLOUDY    75  61  61 SE5       29.95S
PRAIRIE DU CHI CLOUDY    73  61  67 NE3       29.94R
BOSCOBEL       CLOUDY    74  61  63 E6        29.94F
LONE ROCK      CLOUDY    72  64  76 CALM      29.95S
PLATTEVILLE    PTSUNNY   72  66  83 E5        29.95F
FORT MC COY    PTSUNNY   72  61  70 SE3       29.97S
CAMP DOUGLAS   PTSUNNY   73  61  64 SE3       29.96S
MAUSTON-NEW LI MOCLDY    73  64  71 CALM      29.95F
VIROQUA        FAIR      69  63  81 CALM      29.97F
WIS DELLS      MOSUNNY   73  59  62 CALM      29.96S
$$

...ELSEWHERE IN WISCONSIN...


CITY           SKY/WX    TMP DP  RH WIND       PRES   REMARKS
MILWAUKEE      MOCLDY    70  63  78 NE10      29.96F
MADISON        MOCLDY    72  62  71 NE6       29.95S
GREEN BAY      PTCLDY    70  62  76 NE8       29.99R
EAU CLAIRE     MOSUNNY   73  58  59 SE6       29.97S
BLACK RVR FLS  FAIR      74  58  56 CALM      29.96S
MEDFORD        MOSUNNY   68  63  83 CALM      30.00S
WAUSAU         CLOUDY    71  56  58 NE3       29.98S
WIS RAPIDS     CLOUDY    73  55  53 E5        29.98F
MARSHFIELD     MOSUNNY   71  55  56 E3        29.98F
RICE LAKE      CLOUDY    72  59  62 CALM      30.00S
$$

...NORTHEAST IOWA...


CITY           SKY/WX    TMP DP  RH WIND       PRES   REMARKS
WATERLOO       CLOUDY    71  63  75 E8        29.92S
DUBUQUE        CLOUDY    70  64  81 NE5       29.95S
DECORAH        PTSUNNY   70  63  78 CALM      29.94F
MASON CITY     CLOUDY    68  63  84 CALM      29.97R
CHARLES CITY   PTSUNNY   70  64  83 E9        29.94F
OELWEIN        CLOUDY    70  64  83 NE8       29.94S
$$

...ELSEWHERE IN IOWA...


CITY           SKY/WX    TMP DP  RH WIND       PRES   REMARKS
DES MOINES     MOSUNNY   76  69  79 NE12      29.86F
IOWA CITY      CLOUDY    76  68  76 NE12      29.91R
FORT DODGE     PTSUNNY   66  63  88 E10       29.91F
MARSHALLTOWN   PTSUNNY   70  67  90 E9        29.89F
CEDAR RAPIDS   CLOUDY    72  68  87 E10       29.90S
$$

...NORTHERN ILLINOIS...


CITY           SKY/WX    TMP DP  RH WIND       PRES   REMARKS
CHICAGO-OHARE  CLOUDY    73  61  65 NE10      29.95S
CHICAGO-MIDWAY CLOUDY    74  64  71 NE10      29.94S
MOLINE         PTSUNNY   80  67  64 E9        29.90R
ROCKFORD       MOCLDY    80  62  54 NE8       29.94S
PEORIA         PTCLDY    84  69  60 NE7       29.89S
$$

NOTE: "FAIR" INDICATES FEW OR NO CLOUDS BELOW 12,000 FEET WITH NO
SIGNIFICANT WEATHER AND/OR OBSTRUCTIONS TO VISIBILITY. WIND
SPEEDS ARE IN MILES-PER-HOUR.




USA.gov is the U.S. government's official web portal to all federal, state and local government web resources and services.